Probability
0 0 0 0 0 0 0 0 0 0 0 0 0 0 0 0 0 0 0 0 0 0 0 0 0 0 0 0 0 0 0 0 0 0 0 0 0 0 0 0 0 0 0
0 0 0 0 0 0 0 0 0 0 0 0 0 0 0 0 0 0 0 0 0 0 0 0 0 0 0 0 0 0 0 0 0 0 0 0 0 0 0 0 0 0 0
0 0 0 0 0 0 0 0 0 0 0 0 0 0 0 0 0 0 0 0 0 0 0 0 0 0 0 0 0 0 0 0 0 0 0 0 0 0 0 0 0 0 0
0 0 0 0 0 0 0 0 0 0 0 0 0 0 0 0 0 0 0 0 0 0 0 0 0 0 0 0 0 0 0 0 0 0 0 0 0 0 0 0 0 0 0
0 0 0 0 0 0 0 0 0 0 0 0 0 0 0 0 0 0 0 0 0 0 0 0 0 0 0 0 0 0 0 0 0 0 0 0 0 0 0 0 0 0 0
0 0 0 0 0 0 0 0 0 0 0 0 0 0 0 0 0 0 0 0 0 0 0 0 0 0 0 0 0 0 0 0 0 0 0 0 0 0 0 0 0 0 0
0 0 0 0 0 0 0 0 0 0 0 0 0 0 0 0 0 0 0 0 0 0 0 0 0 0 0 0 0 0 0 0 0 0 0 0 0 0 0 0 0 0 0
0 0 0 0 0 0 0 0 0 0 0 0 0 0 0 0 0 0 0 0 0 0 0 0 0 0 0 0 0 0 0 0 0 0 0 0 0 0 0 0 0 0 0
0 0 0 0 0 0 0 0 0 0 0 0 0 0 0 0 0 0 0 0 0 0 0 0 0 0 0 0 0 0 0 0 0 0 0 0 0 0 0 0 0 0 0
0 0 0 0 0 0 0 0 0 0 0 0 0 0 0 0 0 0 0 0 0 0 0 0 0 0 0 0 0 0 0 0 0 0 0 0 0 0 0 0 0 0 0
0 0 0 0 0 0 0 0 0 0 0 0 0 0 0 0 0 0 0 0 0 0 0 0 0 0 0 0 0 0 0 0 0 0 0 0 0 0 0 0 0 0 0
0 0 0 0 0 0 0 0 0 0 0 0 0 0 0 0 0 0 0 0 0 0 0 0 0 0 0 0 0 0 0 0 0 0 0 0 0 0 0 0 0 0 0
0 0 0 0 0 0 0 0 0 0 0 0 0 0 0 0 0 0 0 0 0 0 0 0 0 0 0 0 0 0 0 0 0 0 0 0 0 0 0 0 0 0 0
0 0 0 0 0 0 0 0 0 0 0 0 0 0 0 0 0 0 0 0 0 0 0 0 0 0 0 0 0 0 0 0 0 0 0 0 0 0 0 0 0 0 0
0 0 0 0 0 0 0 0 0 0 0 0 0 0 0 0 0 0 0 0 0 0 0 0 0 0 0 0 0 0 0 0 0 0 0 0 0 0 0 0 0 0 0
0 0 0 0 0 0 0 0 0 0 0 0 0 0 0 0 0 0 0 0 0 0 0 0 0 0 0 0 0 0 0 0 0 0 0 0 0 0 0 0 0 0 0
0 0 0 0 0 0 0 0 0 0 0 0 0 0 0 0 0 0 0 0 0 0 0 0 0 0 0 0 0 0 0 0 0 0 0 0 0 0 0 0 0 0 0
0 0 0 0 0 0 0 0 0 0 0 0 0 0 0 0 0 0 0 0 0 0 0 0 0 0 0 0 0 0 0 0 0 0 0 0 0 0 0 0 0 0 0
0 0 0 0 0 0 0 0 0 0 0 0 0 0 0 0 0 0 0 0 0 0 0 0 0 0 0 0 0 0 0 0 0 0 0 0 0 0 0 0 0 0 0
0 0 0 0 0 0 0 0 0 0 0 0 0 0 0 0 0 0 0 0 0 0 0 0 0 0 0 0 0 0 0 0 0 0 0 0 0 0 0 0 0 0 0
0 0 0 0 0 0 0 0 0 0 0 0 0 0 0 0 0 0 0 0 0 0 0 0 0 0 0 0 0 0 0 0 0 0 0 0 0 0 0 0 0 0 0
0 0 0 0 0 0 0 0 0 0 0 0 0 0 0 0 0 0 0 0 0 0 0 0 0 0 0 0 0 0 0 0 0 0 0 0 0 0 0 0 0 0 0
0 0 0 0 0 0 0 0 0 0 0 0 0 0 0 0 0 0 0 0 0 0 0 0 0 0 0 0 0 0 0 0 0 0 0 0 0 0 0 0 0 0 0
0 0 0 0 0 0 0 0 0 0 0 0 0 0 0 0 0 0 0 0 0 0 0 0 0 0 0 0 0 0 0 0 0 0 0 0 0 0 0 0 0 0 0
0 0 0 0 0 0 0 0 0 0 0 0 0 0 0 0 0 0 0 0 0 0 0 0 0 0 0 0 0 0 0 0 0 0 0 0 0 0 0 0 0 0 0
0 0 0 0 0 0 0 0 0 0 0 0 0 0 0 0 0 0 0 0 0 0 0 0 0 0 0 0 0 0 0 0 0 0 0 0 0 0 0 0 0 0 0
Wind_Speed
3 3 3 3 3 3 3 3 2 2 2 3 3 3 3 4 3 3 4 4 4 3 3 3 4 3 3 3 2 2 3 3 4 4 2 2 2 2 2 2 3 3 3
3 2 3 3 3 2 2 2 2 2 2 2 2 3 3 3 3 3 3 3 4 4 4 4 4 3 4 3 3 4 3 3 4 5 3 2 3 3 3 3 3 3 3
3 2 2 2 2 2 2 2 2 2 2 2 2 2 2 2 2 3 3 3 3 4 4 4 4 4 4 3 4 4 3 4 3 4 4 3 3 3 2 3 3 3 4
3 2 2 2 2 2 2 2 1 2 2 2 2 2 2 2 2 2 2 3 3 3 4 4 4 4 5 4 4 4 3 3 3 3 4 3 3 3 2 2 3 3 3
3 2 2 2 2 1 1 1 1 1 2 2 2 2 2 2 2 3 2 3 3 3 3 4 4 5 7 6 4 4 4 3 3 3 4 3 3 3 3 2 3 3 4
3 3 2 2 2 1 1 1 1 2 2 2 2 3 3 3 3 4 4 3 3 3 4 4 4 5 7 9 10 8 6 5 5 4 4 5 5 4 3 3 2 2 4
3 3 2 2 2 2 2 2 2 2 2 2 3 3 3 4 5 5 6 4 4 4 4 4 4 4 6 4 6 9 9 11 10 6 6 7 5 4 3 3 3 4 5
3 3 2 2 2 2 2 2 2 2 2 2 3 3 3 4 5 6 6 4 4 5 5 5 5 5 5 5 4 5 5 7 8 7 7 6 5 4 4 4 4 4 4
3 3 3 2 2 2 2 2 2 2 2 2 2 3 3 4 6 6 6 3 3 5 5 5 5 5 8 9 5 5 5 6 8 10 10 10 11 10 7 3 2 3 5
3 3 3 3 3 3 3 2 2 2 2 2 3 4 4 5 6 6 5 2 3 4 4 4 7 7 9 9 5 5 7 6 5 5 7 8 8 8 10 5 4 4 4
3 3 2 3 3 3 2 2 2 2 2 3 4 4 4 5 6 7 7 3 4 4 3 3 3 7 9 10 8 6 9 8 5 5 4 4 4 4 4 4 4 4 5
3 2 3 3 3 2 2 3 2 3 3 4 3 4 3 4 4 5 7 7 6 4 4 3 4 8 9 10 8 9 12 10 4 4 4 4 4 4 4 4 5 5 5
3 3 3 3 2 3 3 3 2 2 2 3 3 3 3 3 3 7 8 8 8 4 4 7 8 10 9 7 9 11 9 5 4 4 5 5 4 4 3 3 4 4 4
3 3 3 3 3 3 2 2 2 2 3 3 3 4 4 3 3 2 3 3 5 4 4 6 9 10 7 7 7 6 4 4 4 5 4 4 3 3 3 3 4 3 4
3 3 3 3 3 2 3 3 3 4 4 4 4 3 4 5 5 6 4 3 3 4 4 3 3 3 3 3 3 3 3 3 4 4 4 4 3 4 4 3 4 4 5
3 3 3 2 2 2 2 3 5 6 7 8 8 7 6 8 10 10 10 11 10 10 6 4 4 4 4 4 4 4 3 4 4 4 4 4 4 4 4 3 4 5 5
4 4 3 3 2 2 2 3 4 5 7 9 10 10 10 10 11 11 11 11 11 10 5 4 5 5 4 4 4 4 4 4 4 4 4 5 5 5 4 4 4 5 5
4 4 3 3 3 3 3 3 3 4 4 4 6 9 10 10 10 10 10 8 5 5 4 5 5 5 4 4 4 4 4 4 4 4 5 5 5 5 5 5 5 5 5
3 3 3 3 3 3 3 3 3 4 4 5 4 5 8 8 9 10 8 4 4 5 4 5 5 5 4 4 4 4 4 4 5 4 5 5 5 5 5 5 5 8 6
3 5 4 3 3 3 3 3 3 4 4 4 4 4 3 3 3 4 4 4 4 5 5 5 5 5 4 4 4 4 4 5 5 5 5 5 5 5 6 6 5 5 5
3 3 5 3 3 3 3 4 4 4 5 5 5 5 8 4 4 5 4 4 5 5 5 5 5 5 4 4 4 5 6 5 5 5 5 4 4 5 5 5 5 5 4
3 3 3 3 3 3 4 4 4 4 5 6 5 5 10 5 4 5 5 5 5 5 5 5 5 5 4 4 5 5 5 5 5 5 5 4 4 4 4 4 4 4 4
3 3 3 3 3 6 5 4 4 5 5 5 5 5 5 5 5 5 6 5 5 5 4 4 5 5 4 4 4 5 6 6 5 5 5 5 4 4 4 4 5 5 4
3 3 3 4 4 4 4 4 5 5 5 5 5 5 5 5 5 6 6 5 5 5 4 4 5 6 7 6 4 4 5 5 5 5 6 6 5 4 4 4 4 5 4
3 3 4 4 4 4 4 5 5 5 5 5 6 6 5 5 6 6 5 5 5 5 6 5 5 5 7 8 7 6 8 11 10 6 5 5 6 5 5 5 4 4 4
3 4 4 4 4 4 4 5 5 5 5 6 5 5 5 5 6 6 5 5 5 5 5 5 5 6 7 6 7 9 11 11 11 10 6 4 5 5 5 4 5 5 4
Wind_Direction
173 174 181 188 187 185 193 208 211 216 212 214 219 221 226 226 221 221 229 230 233 243 237 229 241 241 236 228 223 224 228 215 245 274 278 280 271 270 284 272 268 266 270
164 166 178 173 175 186 201 208 202 212 219 220 223 226 231 229 226 224 236 230 224 231 236 233 238 238 237 230 224 225 229 225 229 259 274 270 265 260 257 266 273 267 258
147 154 168 172 176 191 205 204 195 202 214 217 218 227 235 233 230 230 233 240 235 233 232 232 237 232 239 235 231 231 234 240 230 240 262 263 267 268 270 278 276 275 276
152 161 176 183 179 189 198 196 197 198 203 215 224 229 231 235 231 233 235 245 248 247 241 235 235 230 233 231 233 231 230 239 242 243 255 263 263 265 251 264 283 273 276
158 169 182 172 164 169 185 200 200 202 213 215 223 236 235 230 226 223 234 245 250 256 256 245 238 233 233 234 237 227 218 224 234 242 253 261 259 256 247 245 262 282 283
164 175 169 168 172 176 193 205 213 223 225 222 226 232 236 234 232 240 240 245 251 253 257 256 251 246 243 248 253 250 233 225 227 234 247 250 255 247 245 245 252 281 286
170 168 166 176 185 195 199 211 225 228 228 232 234 232 239 238 238 247 250 247 251 252 252 253 255 248 250 238 252 260 258 254 246 237 239 244 250 245 241 251 244 248 257
169 172 174 177 191 201 208 228 235 233 233 238 241 242 248 250 243 247 253 244 247 251 247 243 243 247 239 231 231 245 247 251 250 246 244 250 249 244 229 233 239 256 268
180 184 182 181 196 207 220 235 238 240 252 250 250 252 258 265 256 251 251 237 248 258 256 250 244 242 248 247 238 244 256 258 255 247 245 249 253 260 257 248 247 263 277
191 185 180 185 201 215 222 231 236 236 248 261 265 258 256 261 264 256 249 230 251 263 265 259 252 250 253 253 241 237 255 262 260 263 254 256 256 257 257 238 219 239 261
171 170 182 196 207 218 223 227 230 237 252 262 266 266 260 256 264 259 251 236 238 259 267 267 263 267 265 262 256 243 254 265 258 252 253 251 247 242 242 234 221 224 239
158 178 201 211 214 213 223 235 234 233 249 263 271 278 271 264 258 260 258 252 254 252 260 263 263 275 275 271 268 261 266 271 260 255 254 250 246 244 239 234 233 233 235
171 200 214 217 220 221 227 238 244 241 245 258 263 272 279 274 270 269 268 266 265 260 255 266 275 280 282 275 268 270 272 261 250 251 252 251 242 240 237 236 237 239 245
192 210 213 217 229 230 231 232 235 240 247 254 260 267 275 278 274 273 271 275 273 274 272 275 282 279 275 268 270 268 253 242 246 251 256 253 246 242 241 235 241 244 253
203 212 215 220 226 233 234 231 238 237 233 244 248 250 265 276 272 277 283 277 266 260 281 277 270 265 258 256 254 254 248 250 253 250 252 256 253 250 249 237 236 240 246
205 214 214 216 225 233 251 274 260 255 263 263 261 262 265 268 284 287 287 286 286 282 282 268 267 260 257 255 255 256 249 248 250 248 248 249 251 252 255 246 239 241 248
206 212 211 214 221 233 242 254 281 287 272 269 270 272 270 276 283 287 288 289 285 283 271 260 262 260 259 256 252 251 253 249 248 247 247 249 249 249 251 252 247 246 248
207 212 212 215 220 228 237 243 252 270 288 286 275 275 279 281 283 284 286 291 281 271 254 257 260 260 259 257 257 258 259 256 251 250 249 249 246 247 250 249 245 245 249
206 212 215 217 220 229 237 245 253 260 267 276 283 283 280 283 284 282 282 265 262 266 261 259 259 260 260 257 257 256 257 259 258 254 250 250 248 245 248 246 244 248 247
212 222 222 219 225 233 238 244 252 258 264 268 271 272 278 281 277 277 264 253 256 262 264 264 263 261 261 258 259 258 259 260 259 256 251 249 247 245 247 245 241 242 240
208 217 222 225 228 234 240 245 252 256 261 265 265 267 276 272 265 267 266 259 258 261 263 264 263 259 256 257 258 258 259 261 259 257 254 250 248 248 247 245 243 240 241
203 210 215 223 234 240 246 246 250 255 260 266 272 276 279 272 262 264 265 264 258 252 251 255 262 258 253 252 256 259 261 261 258 254 254 252 250 249 245 241 239 237 235
205 217 231 237 238 251 257 249 251 256 260 263 268 271 269 262 263 265 266 265 261 259 254 253 260 262 255 248 245 250 258 259 255 251 251 250 246 241 236 236 234 236 237
210 223 237 243 242 242 246 252 254 257 261 264 266 266 266 265 267 269 269 267 266 264 261 257 257 260 261 259 255 251 253 256 252 248 243 244 241 234 229 230 232 234 237
223 232 240 243 245 248 251 255 257 259 263 267 269 270 269 269 270 270 269 269 270 269 268 264 261 260 260 259 259 258 260 262 261 253 238 235 232 226 224 228 231 233 237
233 238 243 245 246 248 252 259 262 262 264 266 266 266 267 268 270 272 272 272 274 274 273 270 264 265 266 265 262 263 267 268 266 261 249 228 222 222 218 224 225 229 231